Regional Weather Roundup
Issued by NWS

Home | Current Version | Previous Version | Text Only | Print | Product List | Glossary Off
Versions: 1 2 3 4 5 6 7 8 9 10 11 12 13 14 15 16 17 18 19 20 21 22 23 24 25 26 27 28 29 30 31 32 33 34 35 36 37 38 39 40 41 42 43 44 45 46 47 48 49 50

000
ASUS43 KLSX 240859
RWRMO

WEATHER SUMMARY FOR MISSOURI
NATIONAL WEATHER SERVICE SPRINGFIELD MO
400 AM CDT THU APR 24 2014

NOTE: "FAIR" INDICATES FEW OR NO CLOUDS BELOW 12,000 FEET WITH NO
       SIGNIFICANT WEATHER AND/OR OBSTRUCTIONS TO VISIBILITY.
       CURRENT SKY AND/OR WEATHER CONDITIONS ARE NOT AVAILABLE FOR
       CHILLICOTHE AND FARMINGTON.

MOZ001>031-035>038-043-044-053-054-241000-
...NORTHERN AND WESTERN MISSOURI...

CITY           SKY/WX    TMP DP  RH WIND       PRES   REMARKS
KANSAS CTY INT CLOUDY    68  48  48 S24G32    29.61R
KANSAS C DTWN  CLOUDY    69  47  45 S12G29    29.60S
LEE`S SUMMIT   CLOUDY    66  46  48 S20G38    29.59F
ST JOSEPH      CLOUDY    68  50  52 S12       29.65R
CHILLICOTHE      N/A     61  40  45 VRB6      29.68F
KIRKSVILLE     PTCLDY    53  37  54 SE15      29.75F

$$
MOZ066>068-077>081-088>096-101>105-241000-
...SOUTHWEST MISSOURI...

CITY           SKY/WX    TMP DP  RH WIND       PRES   REMARKS
SPRINGFIELD    MOCLDY    61  42  49 SE20G28   29.77F
JOPLIN         CLOUDY    68  48  48 S21G26    29.67S

$$
MOZ032>034-039>042-045>050-055>058-069>072-241000-
...CENTRAL MISSOURI...

CITY           SKY/WX    TMP DP  RH WIND       PRES   REMARKS
COLUMBIA       MOCLDY    57  37  47 SE13      29.79F
JEFFERSON CITY MOCLDY    58  37  45 SE14      29.80F
ROLLA          PTCLDY    56  35  45 SE13      29.82F
SEDALIA        MOCLDY    63  40  42 SE18G26   29.73F
OSAGE BEACH    MOCLDY    59  36  41 SE12G20   29.81F

$$
MOZ051-052-059>065-241000-
...EAST CENTRAL MISSOURI...

CITY           SKY/WX    TMP DP  RH WIND       PRES   REMARKS
ST LOUIS INTL  MOCLDY    55  33  43 SE13      29.88F
SPIRIT OF STL  MOCLDY    55  32  41 SE7       29.87F
ST CHARLES     CLOUDY    52  34  50 SE7       29.88F

$$
MOZ072>076-082>087-097>100-106>115-241000-
...SOUTH CENTRAL AND SOUTHEAST MISSOURI...

CITY           SKY/WX    TMP DP  RH WIND       PRES   REMARKS
CAPE GIRARDEAU MOCLDY    53  38  56 SE10      29.92F
FARMINGTON     PTCLDY    52  34  50 SE5       29.92F
POPLAR BLUFF   MOCLDY    51  40  65 CALM      29.90F
WEST PLAINS    CLOUDY    54  37  52 SE5       29.89S

$$



USA.gov is the U.S. government's official web portal to all federal, state and local government web resources and services.